Theta_e
300 291 289 288 291 293 295 296 295 295 295 294 292 289 288 287 289 292 293 296 296 290 290 290 291 291 292 294 296 298 299 299 298 298 299 299 300 300 300 300 300 300 301 303 304 305 305 305 304 304 304 304 304 304 305 305 306 307 307 306 307 310 314 314 313 314 314 313 312 312 314 315 316 317 319 319 319 320 320 320 321 321 322 322 322 322
299 290 290 293 295 296 296 297 297 296 295 293 290 288 287 288 287 292 293 296 293 290 289 291 290 291 293 296 297 299 298 297 298 298 299 299 300 300 300 300 300 301 302 303 303 304 305 304 306 306 304 303 302 302 303 305 306 306 306 305 306 311 313 313 314 313 313 313 313 313 313 314 315 316 317 318 318 319 320 320 321 320 321 320 321 320
290 289 293 296 298 298 298 297 297 294 292 292 289 288 287 288 291 294 295 295 294 290 288 291 290 291 293 295 298 298 298 299 300 300 299 298 298 299 300 299 300 300 300 301 302 303 303 305 306 305 305 304 303 302 303 303 304 304 305 305 306 310 311 311 312 312 311 311 311 312 311 314 313 316 317 317 317 317 318 320 320 320 319 319 319 319
287 290 295 297 297 296 296 296 296 293 293 289 289 286 285 289 289 286 294 295 295 292 290 291 290 292 295 297 298 300 299 300 302 302 301 301 298 298 298 298 299 299 298 299 300 300 301 302 304 304 304 304 303 301 301 302 303 305 306 305 306 307 309 309 310 310 310 310 311 311 313 314 314 313 315 315 316 316 317 318 319 318 318 317 317 317
290 296 300 301 298 296 294 295 294 291 289 291 290 289 288 288 290 290 291 293 294 294 294 292 290 290 293 292 295 298 300 301 302 301 300 299 301 301 302 300 302 299 298 298 299 300 301 301 300 303 304 304 303 303 301 301 302 305 303 303 304 305 307 307 308 309 310 310 310 310 312 312 312 312 313 313 313 315 316 316 317 317 317 317 316 316
293 297 299 297 296 296 294 291 292 291 287 288 292 291 291 292 292 293 293 290 287 286 292 290 282 284 290 292 294 297 297 294 297 297 298 298 299 299 298 298 300 302 300 299 300 300 301 301 302 301 302 303 302 302 303 302 304 301 302 302 303 303 305 306 307 309 310 310 310 309 310 309 309 309 310 311 312 313 314 315 316 316 317 316 316 316
294 299 297 294 294 293 293 291 293 292 287 284 288 295 294 293 292 290 289 288 281 280 288 293 282 280 290 290 292 295 295 293 296 296 296 298 299 300 298 298 298 300 299 300 300 300 301 301 301 301 302 302 302 302 304 304 303 302 302 301 302 302 304 306 306 308 309 308 309 309 309 310 309 309 310 310 311 313 312 313 314 315 315 316 315 315
296 296 295 294 294 292 291 289 293 293 288 285 294 294 294 292 290 290 290 286 284 289 290 291 288 281 282 288 292 294 294 292 293 295 294 295 295 296 297 298 299 298 298 299 300 300 301 301 301 301 302 302 303 304 305 305 305 303 302 302 302 302 303 305 307 307 308 308 308 308 308 309 309 308 308 309 310 311 311 312 312 313 314 315 315 315
296 293 294 292 292 290 290 293 295 296 291 290 293 295 292 292 291 290 286 285 286 284 282 285 287 280 280 288 294 294 291 291 291 292 293 294 294 294 295 297 296 297 299 298 298 300 301 301 302 301 303 305 306 305 305 304 304 304 304 303 301 301 301 304 306 306 307 308 308 308 308 308 308 307 307 308 309 310 310 310 310 312 313 313 314 314
296 295 296 296 293 289 293 294 295 295 291 294 295 295 294 292 291 290 284 285 285 281 280 281 285 278 281 288 290 292 289 289 290 291 292 293 293 294 295 295 296 296 297 300 299 301 302 302 302 301 304 306 306 305 306 305 303 303 302 302 301 301 302 304 305 305 305 306 307 307 307 306 305 305 306 307 308 308 309 309 309 311 311 312 312 313
294 297 297 295 293 295 294 294 295 294 295 293 294 291 290 290 287 286 286 284 281 277 281 285 286 282 276 285 288 287 289 290 290 290 292 293 293 295 295 295 296 296 297 297 298 299 302 301 301 301 303 305 305 304 304 304 304 303 302 301 301 302 303 303 303 304 305 305 305 306 306 305 304 304 306 306 306 307 307 308 309 310 310 311 311 312
294 295 292 294 298 297 295 292 293 293 294 293 287 286 285 284 285 283 283 283 276 276 282 285 286 286 275 281 288 291 293 292 290 289 289 291 293 294 294 295 296 296 296 296 297 298 299 300 301 303 303 304 304 305 305 304 305 304 303 302 301 302 302 302 303 303 304 304 304 304 304 305 305 305 307 306 306 307 307 307 308 309 309 310 310 311
289 291 295 295 297 295 292 289 290 291 291 288 285 285 278 277 280 276 280 275 276 276 280 282 285 281 281 286 290 292 293 291 291 291 291 292 293 294 294 295 295 296 296 297 296 297 297 297 297 297 300 303 305 304 305 304 303 304 303 303 302 302 302 302 303 302 303 303 304 305 305 304 306 306 307 306 306 307 307 308 308 308 309 309 309 310
287 293 293 293 293 296 294 286 284 282 286 285 282 281 278 274 274 272 276 279 279 281 281 281 285 279 284 288 292 292 292 291 291 292 292 293 294 294 295 296 295 296 296 297 297 296 296 296 296 297 299 301 302 304 304 302 303 302 303 303 303 303 302 302 302 302 302 303 303 304 304 305 306 306 306 306 307 307 307 308 309 309 309 309 309 309
281 283 289 291 286 294 293 291 290 287 286 287 288 285 281 279 276 272 276 274 274 278 281 283 279 277 278 285 292 293 291 291 291 292 293 294 295 296 295 295 295 295 295 296 296 297 297 297 297 297 298 299 301 302 303 302 302 301 301 302 303 303 302 302 302 302 302 303 303 303 304 305 305 305 305 305 306 307 307 307 308 309 309 309 309 309
286 285 288 292 292 294 291 294 294 292 287 288 289 289 282 281 284 278 281 278 277 277 276 278 278 281 284 291 294 294 291 291 291 291 292 292 294 294 294 294 295 296 296 296 295 296 296 298 299 299 298 298 300 301 301 302 302 301 301 301 302 303 302 302 302 302 303 303 303 303 303 304 304 305 305 305 305 306 307 307 308 308 309 309 309 309
285 282 288 291 293 290 290 293 294 294 280 285 287 281 283 288 287 281 281 279 278 276 276 280 281 286 290 292 294 293 289 289 289 290 290 291 292 294 294 293 294 296 295 294 295 295 296 296 297 299 299 299 299 300 300 301 302 302 302 301 301 301 302 302 302 302 302 303 302 302 303 303 303 304 304 304 304 305 306 307 308 308 308 308 309 309
284 284 286 287 285 289 290 290 292 293 291 286 280 284 289 290 287 281 275 277 276 273 276 281 277 279 282 279 290 289 287 289 289 289 290 290 291 291 292 293 293 294 297 296 296 296 296 297 297 298 299 299 298 298 299 300 300 301 301 301 301 300 302 301 303 302 302 302 302 302 302 302 303 303 303 304 304 304 306 306 307 307 307 307 308 309
289 281 284 286 286 288 290 290 288 291 291 287 283 286 284 277 276 281 278 269 270 271 273 278 280 280 281 283 287 286 287 288 289 289 289 290 290 291 291 292 293 294 295 296 295 295 296 295 297 297 298 300 298 298 299 300 299 299 299 300 301 301 301 302 303 302 303 303 303 304 303 302 302 302 302 303 303 303 305 305 305 306 306 306 307 307
289 282 281 284 286 287 286 285 279 282 289 288 289 285 283 281 279 278 279 277 278 271 273 272 278 277 287 285 288 287 290 289 289 289 289 290 293 293 292 293 294 294 296 295 295 295 296 296 296 297 297 297 299 300 300 300 300 299 298 298 299 299 299 300 301 301 302 302 303 303 302 302 302 301 302 302 302 303 303 304 304 304 304 306 306 307
285 287 278 282 283 287 279 284 282 285 283 282 281 280 282 282 283 281 281 278 276 273 273 273 272 278 287 290 289 289 290 290 290 290 291 293 294 294 295 295 295 296 296 295 295 295 296 296 296 297 297 298 299 299 299 299 299 301 300 299 298 299 300 300 300 300 301 302 302 302 302 302 303 303 303 303 303 303 303 304 304 304 304 304 305 306
285 284 281 282 279 281 283 288 288 289 289 286 284 282 284 281 278 275 275 282 278 276 273 274 274 278 289 291 290 289 289 291 291 291 292 293 292 293 295 296 296 297 297 296 296 295 296 295 296 296 297 298 298 298 298 299 298 298 300 302 302 300 299 299 300 300 300 301 302 302 302 303 303 304 304 303 304 304 304 304 304 304 304 304 305 306
288 286 283 282 281 283 286 286 286 286 284 283 286 283 287 284 282 278 274 275 278 278 278 276 274 277 288 290 289 290 289 289 290 290 292 291 291 292 294 295 295 295 296 296 296 296 295 295 295 296 296 297 298 298 298 298 298 298 298 299 300 301 301 302 302 301 301 301 301 302 303 303 303 304 304 304 304 304 304 304 304 305 305 305 305 305
293 284 282 283 285 282 282 285 286 285 286 284 283 284 284 283 285 283 280 278 277 276 276 275 274 279 288 289 290 290 291 291 290 290 290 290 292 293 292 293 294 294 295 295 295 296 295 295 295 294 295 296 297 297 298 299 298 298 298 299 299 299 299 301 301 302 302 301 301 301 302 303 303 303 303 303 303 303 304 304 305 304 305 305 305 305
284 285 283 279 279 280 279 281 281 282 282 281 282 285 286 286 286 285 284 281 277 279 278 276 274 275 288 289 290 290 290 290 290 290 290 290 291 292 292 292 293 294 294 294 294 295 295 295 295 296 296 295 297 297 298 299 300 299 300 300 300 301 301 301 301 301 301 300 300 300 300 301 302 302 303 303 303 303 303 304 304 304 304 304 304 304
286 284 283 277 275 273 273 274 275 277 280 282 283 285 286 286 285 282 280 280 277 278 280 278 278 283 287 288 290 291 290 290 291 291 291 291 291 292 292 293 294 294 294 294 294 294 295 295 295 296 295 295 296 295 296 298 299 300 299 299 300 300 301 301 301 301 301 301 300 300 300 300 300 301 302 302 302 303 303 303 303 303 303 303 303 303
284 286 285 283 281 279 281 284 287 286 283 280 282 284 285 287 287 286 283 280 278 278 278 282 282 283 284 286 288 290 291 291 292 293 292 292 291 292 291 292 293 293 294 294 294 295 294 293 294 295 295 295 295 296 296 296 297 298 299 300 300 300 300 300 301 301 300 300 300 300 300 301 301 301 301 301 302 302 302 302 302 303 303 302 303 302
285 283 285 285 285 285 286 286 287 287 283 284 283 283 285 285 286 285 282 280 283 279 278 283 285 283 285 287 288 288 290 292 292 292 292 291 292 293 294 292 294 294 294 293 293 294 293 294 294 294 295 294 295 295 295 296 296 297 296 297 297 299 299 300 299 299 299 299 299 299 299 300 300 300 300 300 299 299 300 301 301 302 302 301 302 302
285 282 285 284 284 286 287 287 288 287 286 286 286 285 283 285 285 283 283 285 285 281 279 282 284 283 286 288 290 291 291 292 292 293 293 294 293 293 293 292 293 293 294 293 293 293 293 293 293 294 294 295 294 294 294 295 295 295 294 295 296 296 297 299 297 297 297 297 297 297 297 298 298 298 299 299 299 299 299 300 301 301 301 301 301 302
286 283 285 285 284 285 285 286 287 285 286 286 285 286 287 285 285 286 285 286 286 284 286 286 285 285 288 288 290 292 293 293 294 294 294 294 294 293 291 292 293 293 293 293 292 293 293 293 293 294 294 294 294 293 293 293 293 293 293 293 293 294 294 295 295 294 294 295 295 295 296 296 297 298 297 297 297 298 298 299 300 300 300 300 300 300
287 282 287 285 283 283 285 286 286 286 285 284 286 286 286 286 285 286 286 286 286 286 287 286 285 285 290 291 292 294 294 295 295 294 294 294 294 294 293 292 291 292 292 292 292 292 292 293 294 293 293 293 292 292 292 291 291 291 291 291 292 292 292 291 291 292 292 293 293 293 294 294 294 295 296 295 295 296 296 297 297 296 298 298 297 298
286 282 285 284 281 280 284 284 284 285 284 283 283 284 285 284 283 284 284 286 284 283 285 284 283 284 288 292 293 291 293 293 293 293 294 294 294 293 291 291 291 291 291 292 293 293 293 293 292 292 291 290 290 290 290 290 290 290 290 290 290 290 290 290 290 290 291 291 292 293 293 293 292 292 292 292 294 294 293 293 293 293 294 293 293 294
285 284 282 282 279 279 283 284 283 283 282 280 281 284 285 286 286 287 287 288 288 288 284 282 283 289 290 291 289 290 291 293 293 293 293 292 292 292 291 290 291 291 290 290 290 290 290 290 290 290 289 288 289 289 289 289 289 288 289 289 290 289 289 289 290 290 290 290 291 290 291 290 290 290 290 290 290 291 292 291 292 291 291 292 292 291
285 284 282 285 278 279 282 282 283 279 274 276 286 290 288 285 286 284 285 286 288 289 288 290 289 291 290 290 289 290 290 292 292 290 288 288 289 289 290 288 287 288 287 287 287 286 286 287 287 288 287 287 288 288 288 288 287 288 288 288 286 287 288 289 289 289 288 288 288 288 288 289 289 289 289 290 289 289 290 290 289 289 289 290 290 291
284 284 282 285 280 278 281 281 277 272 274 285 286 289 290 290 289 287 288 288 289 290 290 290 290 290 291 292 291 292 292 293 289 287 287 288 288 287 287 287 287 286 285 285 285 285 284 284 284 284 284 284 286 286 285 285 286 286 286 287 288 287 288 287 286 285 286 285 285 286 286 287 287 287 288 288 288 287 287 288 287 288 288 289 292 290
284 283 283 282 282 282 276 277 271 272 282 285 286 285 287 287 287 287 285 288 289 290 290 289 290 291 292 292 293 293 293 291 286 285 285 286 287 286 286 286 286 285 284 283 283 283 283 282 282 282 283 284 284 283 282 283 284 284 286 286 286 285 285 285 284 283 283 284 284 285 286 286 286 286 286 287 287 287 287 287 286 288 288 289 289 289
286 285 284 279 284 276 277 277 276 283 282 284 284 285 283 282 283 284 280 284 289 291 291 290 290 291 291 292 293 293 292 290 286 284 285 285 285 285 285 285 285 284 283 283 282 281 282 282 281 282 281 281 281 280 280 281 282 283 285 284 284 283 283 282 281 281 282 283 284 285 286 286 287 287 287 287 286 286 286 286 287 286 285 286 287 288
288 284 284 281 279 282 277 276 276 275 272 279 285 290 291 289 289 289 285 283 289 286 286 287 285 284 285 286 288 290 291 288 285 282 283 284 284 283 284 283 283 282 282 281 280 280 280 280 280 280 280 279 279 279 279 280 282 283 283 283 282 281 281 281 280 281 282 282 284 285 286 286 286 286 287 287 287 288 288 288 287 286 285 285 285 286
287 287 286 282 279 281 277 274 274 273 276 283 284 287 289 291 290 287 282 279 282 281 284 284 283 283 283 283 284 287 286 283 281 279 282 283 283 283 281 281 280 280 280 279 278 278 278 279 280 280 278 278 277 278 279 280 281 282 282 281 280 280 279 280 280 281 281 282 283 284 285 285 286 286 286 287 287 288 288 288 289 289 289 289 287 285
283 283 283 280 278 279 278 276 274 279 278 281 282 284 284 289 289 286 275 275 280 280 281 281 280 280 282 282 283 280 282 283 278 279 282 282 282 281 280 280 279 278 278 278 278 278 278 279 279 278 278 277 277 278 278 279 280 281 280 279 278 278 278 279 280 281 282 282 282 283 284 284 284 285 285 286 287 287 287 288 288 288 289 288 288 288
280 281 282 277 279 279 280 277 280 280 286 285 281 283 283 288 288 278 274 279 279 279 279 280 279 279 280 280 281 278 278 279 280 280 280 280 279 279 279 279 278 278 277 277 277 278 276 278 278 278 278 277 277 277 277 278 279 279 279 278 277 277 277 279 280 281 282 282 282 282 282 282 282 283 285 286 286 286 286 286 287 287 287 287 287 287
280 280 280 281 278 277 278 277 277 281 286 288 286 286 286 285 275 276 277 276 279 277 278 278 277 278 279 279 279 278 279 280 280 279 279 279 279 278 278 278 277 277 277 277 277 276 275 276 276 277 277 277 276 276 276 276 277 277 277 276 275 276 277 278 280 281 281 282 281 281 281 281 281 282 283 285 286 286 285 286 286 287 287 286 285 284
279 279 276 278 280 280 279 276 275 272 281 274 280 283 282 281 277 275 276 277 278 278 276 275 276 276 277 277 279 279 278 278 278 278 278 278 278 277 277 276 276 275 275 275 274 274 274 274 275 275 275 276 276 276 275 275 275 276 276 274 275 276 276 278 279 280 280 281 281 280 280 280 280 280 281 282 284 285 285 285 285 285 285 285 284 284
286 278 278 280 283 276 276 273 275 279 273 275 278 280 273 274 276 278 278 273 275 275 275 274 274 275 276 275 276 277 276 276 276 277 276 276 277 277 277 276 276 275 275 275 275 274 274 273 274 274 274 274 275 275 274 274 273 274 274 273 274 275 276 277 278 279 279 280 280 280 280 280 280 280 280 281 281 284 284 283 284 284 285 285 284 282
286 282 285 279 285 281 278 279 272 271 273 274 274 272 273 274 275 275 275 273 272 272 274 273 273 274 275 274 274 275 274 275 274 275 273 274 275 275 275 275 274 274 274 273 274 274 273 272 272 272 272 273 273 273 273 273 272 272 271 272 273 273 274 275 276 277 278 278 278 278 279 279 279 279 279 279 280 280 281 282 283 282 283 283 283 282
286 287 289 286 279 273 274 274 274 273 272 272 272 273 272 272 272 273 272 271 270 271 271 270 272 273 274 274 272 273 272 273 272 272 272 272 273 274 274 273 273 273 272 273 273 272 271 272 271 271 270 271 272 272 272 271 271 270 270 271 272 272 272 273 274 275 276 277 277 277 278 277 278 279 279 278 279 278 279 279 280 281 282 282 282 281
277 273 278 282 280 279 271 273 271 272 272 272 271 271 272 271 270 270 270 269 269 269 270 270 271 272 273 272 271 270 271 272 270 270 270 270 271 272 271 270 271 271 270 270 271 271 270 269 268 268 269 268 270 270 270 269 270 270 270 269 270 270 271 272 273 274 275 275 276 276 276 276 276 276 276 276 276 277 277 277 277 278 279 280 280 279
275 274 275 279 274 275 269 267 269 269 269 269 270 269 268 269 269 269 268 268 268 269 269 269 270 271 271 269 269 269 269 270 267 267 267 268 269 269 268 268 268 268 269 270 269 268 268 267 266 266 267 267 268 269 268 268 268 268 268 268 268 268 269 270 272 273 274 274 275 275 275 275 276 275 274 274 273 273 274 275 276 275 275 275 276 277
267 269 269 272 270 269 269 269 268 268 267 267 268 267 267 268 268 267 267 266 267 266 267 267 268 269 269 267 268 267 267 267 266 266 265 267 267 267 266 266 267 266 268 267 267 267 265 265 265 265 265 265 267 267 266 266 266 267 267 267 266 267 267 268 270 271 273 274 275 274 275 275 274 274 274 273 273 272 273 272 274 275 275 277 277 276
268 267 267 271 270 267 266 266 267 267 268 266 265 265 265 266 267 266 266 265 265 264 265 264 266 268 267 267 266 266 265 265 264 265 264 265 265 265 265 265 265 265 266 266 266 265 264 264 264 263 264 264 265 265 265 265 265 266 267 266 265 265 265 267 268 270 272 274 274 274 274 274 274 274 273 273 272 272 272 273 274 275 275 275 278 279
263 263 263 263 265 265 265 264 266 267 266 265 265 265 265 266 265 265 264 264 264 264 264 264 265 265 265 265 265 264 264 263 263 264 263 264 264 264 264 264 264 264 265 265 264 263 263 263 263 263 263 263 264 264 264 263 264 265 266 265 264 264 264 265 267 269 271 273 273 274 273 274 273 273 272 273 272 272 270 270 271 272 273 274 276 278
Wind_Speed
6 6 8 10 10 9 10 13 14 13 11 10 7 6 8 10 12 10 11 9 6 6 8 8 14 19 21 21 21 21 17 12 11 12 11 10 10 11 12 11 10 11 13 8 8 8 8 9 9 9 9 9 9 8 9 9 10 10 10 9 10 9 9 9 8 8 9 9 8 7 10 11 10 9 8 8 7 8 8 8 9 9 9 10 10 10
7 8 12 11 10 11 11 10 9 8 8 7 5 6 9 8 11 9 11 9 3 1 10 10 15 20 21 19 19 19 17 14 11 9 9 11 11 11 11 10 8 9 5 6 6 7 6 5 6 6 6 6 7 6 7 9 10 10 10 10 10 8 9 11 11 11 10 10 11 11 12 9 7 8 9 9 8 8 7 8 9 9 9 10 10 10
7 14 11 10 10 9 10 10 7 5 5 5 6 6 8 9 9 12 11 3 1 2 10 11 17 21 22 20 19 17 17 10 4 2 4 5 5 4 3 3 4 4 6 5 7 7 7 7 7 6 5 5 5 6 7 7 7 7 8 9 9 9 10 10 11 10 10 8 7 8 5 8 5 5 6 7 7 6 7 7 8 9 9 9 9 10
8 11 15 15 11 9 9 9 4 3 4 5 6 6 11 8 6 7 4 7 9 6 12 13 14 18 22 16 12 11 2 0 3 1 3 3 4 5 5 4 3 4 5 6 5 4 4 5 7 7 7 7 5 5 4 6 8 8 9 9 9 9 9 9 9 9 8 7 6 5 5 6 7 6 6 5 5 6 6 7 7 7 9 9 9 9
14 3 3 2 9 12 11 7 5 5 7 6 9 9 9 7 8 7 9 9 10 9 5 10 13 13 8 4 10 12 2 3 2 1 2 3 4 3 3 3 2 3 4 5 5 5 5 6 5 7 8 6 6 5 5 5 5 5 7 7 7 7 8 8 8 9 7 7 6 6 5 5 4 3 6 6 6 8 6 5 7 9 9 10 9 10
16 13 7 3 3 5 6 6 7 5 8 5 7 8 7 8 12 10 7 9 7 6 2 13 11 7 2 12 9 11 2 3 0 1 4 3 3 3 4 5 5 5 5 5 5 4 5 5 6 5 5 6 5 5 5 4 3 4 5 5 6 5 7 8 9 10 9 10 10 9 9 9 8 8 9 12 13 11 11 12 7 7 9 9 9 9
9 5 11 11 6 5 7 8 5 7 7 5 4 3 6 5 3 4 7 4 5 4 2 6 2 11 13 13 11 7 9 2 2 1 3 1 0 1 3 5 3 0 2 2 3 4 5 5 5 5 3 5 5 3 3 3 4 4 5 6 7 7 7 8 9 11 10 10 10 14 13 12 13 12 10 7 6 8 7 6 7 8 7 9 10 9
5 8 6 5 8 9 7 9 7 7 5 8 0 2 3 4 5 4 3 2 6 5 9 5 7 7 12 16 8 6 11 3 3 1 4 6 6 7 6 7 5 3 4 2 1 3 3 3 3 4 2 5 5 4 3 3 3 4 5 6 7 6 7 6 8 10 10 11 10 11 10 9 9 9 8 8 7 6 6 7 7 6 7 8 9 9
5 6 8 6 6 7 11 9 2 9 8 2 1 4 0 2 4 4 3 5 5 5 10 1 4 1 6 11 12 13 4 5 5 5 6 7 6 5 6 6 6 5 3 1 1 2 2 2 3 2 2 4 5 5 4 3 1 0 1 2 4 5 5 5 8 9 9 9 10 10 9 8 6 6 6 6 6 7 7 7 6 7 7 8 8 9
2 1 4 8 7 9 6 5 5 5 7 2 1 1 2 1 4 4 3 3 4 2 11 3 5 3 9 9 9 2 5 6 6 4 7 8 7 6 5 5 4 5 4 2 1 1 1 0 0 3 3 4 4 4 5 4 3 2 1 2 3 4 4 5 7 8 8 7 7 8 8 9 7 6 6 7 8 7 8 8 8 7 7 8 8 9
3 3 4 2 5 4 4 1 1 5 2 1 2 2 4 4 4 4 3 2 3 4 12 9 9 5 4 7 7 1 2 4 4 5 5 6 7 5 5 5 5 5 5 5 4 4 1 3 3 3 3 5 4 4 5 5 4 4 3 3 3 3 3 4 5 6 7 6 6 7 8 8 8 7 7 8 8 7 8 9 9 8 8 7 8 7
10 6 2 3 3 1 3 1 2 3 2 1 0 1 3 6 4 1 1 3 1 5 0 0 10 7 4 8 5 4 9 6 5 5 4 4 4 4 4 5 5 5 4 4 4 4 4 4 2 1 3 4 5 5 5 5 5 5 4 4 4 4 4 4 5 5 6 6 6 6 6 8 8 8 7 9 10 9 10 9 9 7 7 7 7 7
12 14 7 4 7 7 3 2 0 1 2 2 2 1 1 3 3 2 3 3 6 7 2 0 4 2 11 12 13 15 14 1 5 6 3 2 2 3 2 3 4 4 4 5 5 4 4 4 3 2 3 2 2 4 5 5 4 4 4 5 5 4 4 4 4 5 5 5 6 6 7 7 7 7 8 8 8 7 8 8 8 9 9 8 9 9
7 10 14 8 2 9 8 8 4 0 5 5 5 5 3 2 3 4 4 3 4 1 1 3 4 4 4 7 11 11 1 5 5 6 5 2 0 2 2 2 3 4 5 5 4 4 4 3 3 4 1 1 1 2 4 4 5 4 3 3 5 5 4 4 4 4 5 5 5 5 6 7 7 7 8 8 9 8 8 8 9 10 10 10 11 10
3 1 6 11 4 8 13 13 9 3 9 10 5 8 6 3 2 3 3 5 2 1 2 4 0 5 2 5 1 1 5 4 5 5 4 2 1 0 3 2 2 4 4 4 5 5 3 2 1 1 3 4 1 1 2 3 4 4 4 3 2 6 4 4 4 4 4 4 4 5 4 6 5 6 7 7 7 8 8 7 8 8 8 8 9 9
8 5 2 1 2 9 12 10 4 2 2 6 5 3 3 9 0 4 0 1 2 3 3 3 5 2 5 6 13 5 5 4 5 4 2 3 3 1 3 4 4 3 4 4 5 6 5 3 1 1 1 1 1 0 1 2 3 3 3 4 2 5 5 4 4 4 4 4 4 4 5 5 5 5 5 5 5 7 7 7 8 8 8 7 7 7
2 5 2 1 2 3 1 2 6 2 3 4 8 7 6 1 1 2 4 1 1 1 9 3 6 5 7 10 16 8 6 5 5 4 2 3 2 0 1 3 4 3 2 4 5 5 5 5 5 3 1 1 0 1 1 4 4 4 4 4 3 4 5 5 5 4 4 5 5 5 5 5 5 5 6 7 6 6 6 6 7 7 7 6 7 7
3 2 1 2 2 1 1 1 2 3 0 1 3 2 1 2 3 2 2 0 1 6 4 6 6 3 1 6 1 8 5 7 7 7 5 5 5 3 2 2 3 4 2 2 3 2 3 3 4 5 2 0 1 1 1 2 2 4 5 5 5 5 6 5 5 5 4 5 5 5 5 5 5 5 5 5 6 5 7 6 6 6 7 7 7 7
1 5 3 2 3 2 1 1 2 2 2 1 1 1 3 2 1 3 2 3 2 5 3 4 8 5 7 6 1 4 7 9 7 6 5 5 5 6 4 4 4 4 2 3 5 5 5 5 4 3 4 2 2 2 2 1 1 1 3 5 5 7 7 7 6 5 4 4 4 4 5 5 4 4 4 4 4 5 5 6 6 5 6 5 6 7
2 4 1 2 1 3 1 2 5 4 0 1 1 4 1 2 2 6 6 3 2 4 1 3 2 5 5 6 8 5 1 11 8 7 6 5 2 2 2 4 3 2 2 4 4 4 4 4 4 4 4 4 3 1 2 2 2 2 3 4 5 4 4 6 6 6 6 5 4 4 4 4 4 4 4 4 4 4 4 5 4 4 4 6 5 6
4 0 4 1 4 1 1 5 6 11 11 5 1 3 1 2 1 1 3 3 3 2 4 3 5 5 3 1 0 1 5 6 9 8 5 1 0 1 1 1 2 1 1 3 5 5 5 5 5 5 4 3 2 2 1 2 3 4 3 3 3 4 6 7 7 7 7 7 6 6 6 6 6 6 5 5 5 5 5 5 5 5 4 4 5 6
2 3 8 3 1 6 3 4 8 3 10 11 13 12 12 8 3 3 9 2 3 2 4 3 11 3 4 3 3 4 4 9 6 5 1 1 1 1 1 0 2 1 1 3 3 4 6 5 6 6 5 4 3 3 3 3 4 4 4 5 5 4 4 4 5 6 7 7 8 8 8 7 6 6 6 6 7 7 7 6 7 6 5 6 5 6
3 1 2 7 5 8 7 1 1 3 2 2 6 6 8 6 3 3 7 4 1 6 1 2 6 7 3 2 3 2 4 4 4 2 0 3 4 3 1 0 1 3 3 4 3 5 5 5 5 5 5 5 5 5 4 3 4 4 5 5 5 6 6 6 7 6 5 6 8 9 8 7 7 7 7 7 7 7 7 7 7 7 7 7 6 7
4 2 4 7 3 2 2 1 1 1 1 1 3 1 4 11 10 9 6 2 4 1 3 2 9 3 3 1 1 1 1 0 1 1 4 4 4 5 5 7 6 5 5 4 4 4 5 6 5 4 5 5 5 5 4 4 4 4 4 4 4 5 5 5 4 4 5 5 5 5 6 7 7 7 7 7 7 7 7 7 6 7 8 7 7 8
5 3 4 1 4 2 2 1 2 1 1 3 3 7 8 6 6 6 2 1 4 8 7 7 17 2 4 2 4 3 4 2 3 5 5 5 4 4 5 5 5 4 5 6 5 5 6 6 6 5 5 4 4 4 4 4 4 3 4 3 3 4 4 4 4 4 4 4 4 4 4 5 7 8 8 8 7 8 7 7 7 6 7 7 7 7
3 3 7 8 12 12 11 9 7 4 9 5 4 7 10 13 9 4 9 5 10 5 12 10 11 2 3 4 5 4 3 3 4 4 3 3 3 6 6 5 5 5 5 5 5 6 7 6 5 4 4 5 4 4 5 5 4 4 3 3 3 3 2 3 3 4 4 4 4 4 5 5 5 7 8 8 8 8 8 7 7 7 6 7 8 7
1 1 5 11 12 14 10 2 1 4 3 5 7 13 13 13 14 11 5 6 15 2 9 16 10 5 6 3 4 5 3 4 9 11 7 6 6 6 5 4 4 5 5 6 5 6 6 5 5 5 5 4 4 4 4 4 5 4 2 2 2 2 2 2 3 3 3 3 4 4 4 5 6 7 6 7 7 5 5 6 6 7 7 7 7 7
2 5 15 17 15 17 11 11 8 2 1 3 5 9 14 13 13 15 14 17 3 1 19 8 6 12 12 7 9 7 7 10 12 9 7 5 6 8 8 5 5 6 7 5 5 6 5 4 5 6 6 5 5 5 5 5 6 6 5 3 3 2 0 0 1 2 2 2 2 3 3 3 4 4 4 4 4 4 4 5 5 6 6 6 7 7
7 13 17 10 18 20 17 18 16 15 12 7 5 7 11 12 12 17 20 15 8 11 16 5 10 13 10 10 11 14 9 11 10 9 10 10 7 6 6 6 6 7 8 6 5 5 3 6 6 6 5 6 7 7 7 7 8 8 8 8 9 8 7 2 0 0 1 1 2 3 4 4 4 4 4 5 5 5 5 6 6 6 6 7 7 7
6 11 15 9 15 16 18 19 14 14 16 15 14 13 9 12 17 19 18 17 18 18 17 15 12 14 7 6 7 9 11 8 8 8 6 9 12 8 5 6 7 7 7 6 5 3 5 5 5 6 8 8 9 10 10 10 9 9 9 9 9 8 9 10 8 5 4 3 3 3 3 3 3 3 3 3 4 4 4 5 5 5 6 6 7 7
9 10 12 8 10 17 19 13 10 13 8 13 15 16 19 19 16 16 15 13 14 17 20 16 17 22 12 6 11 9 10 11 12 15 15 11 10 10 7 5 5 6 6 5 5 5 5 7 9 9 10 10 12 11 9 9 8 7 8 9 9 10 10 9 7 7 6 6 5 5 5 4 4 2 2 3 3 3 3 4 4 4 5 5 5 6
8 3 2 7 11 14 15 12 13 9 9 12 19 22 23 21 21 18 14 10 10 17 12 10 18 21 3 9 13 5 8 13 15 13 12 10 7 7 5 3 5 6 7 8 9 9 11 11 10 10 10 10 10 9 9 8 7 8 9 8 8 8 8 7 7 7 7 6 6 7 7 6 5 5 4 3 2 2 3 3 3 4 4 4 4 4
8 6 7 6 11 14 12 8 13 9 9 13 24 34 27 21 21 13 14 16 18 15 14 17 22 15 8 6 5 5 7 11 10 9 8 6 5 1 3 6 12 13 13 13 12 12 12 11 10 10 9 8 9 8 8 8 7 7 7 6 6 6 7 7 7 7 8 8 9 9 8 7 6 5 5 5 4 3 2 3 4 4 4 5 4 4
8 10 9 6 9 9 9 7 5 5 11 18 12 4 16 22 21 23 24 23 21 16 17 17 18 14 7 8 9 10 8 7 1 8 11 9 9 11 13 12 10 10 11 11 10 10 10 10 9 9 10 9 9 8 8 7 7 7 7 5 4 5 5 6 8 8 8 8 9 10 10 10 9 8 7 6 5 4 2 2 4 4 3 3 3 4
13 11 11 7 5 9 4 7 9 16 18 11 4 2 5 15 18 23 25 22 21 20 21 21 21 18 12 12 11 11 10 4 12 13 14 13 11 11 11 11 11 9 9 9 11 10 10 9 8 9 9 10 9 9 10 9 9 8 7 6 6 6 6 6 7 7 7 7 8 9 9 10 10 9 9 8 6 4 3 3 3 3 4 4 4 4
12 13 10 8 7 4 4 9 12 15 5 3 2 3 4 3 8 9 15 18 19 19 19 21 20 17 14 13 13 8 6 9 13 13 11 12 12 11 12 10 10 10 10 10 9 10 9 8 8 8 8 7 7 9 8 10 9 8 8 7 8 7 8 7 7 7 7 7 8 8 8 9 8 9 9 9 8 7 6 6 4 2 2 1 2 1
15 11 9 9 9 12 8 13 16 7 15 12 14 11 5 6 5 11 10 9 10 13 14 16 16 13 10 8 8 8 5 10 8 9 12 12 13 11 11 9 8 8 7 8 8 9 7 4 5 5 6 6 6 8 8 8 9 7 7 8 9 9 9 9 10 10 9 8 8 7 7 7 7 6 7 7 7 7 6 6 6 5 3 1 1 1
15 15 10 13 9 11 11 11 6 7 12 18 17 9 6 8 8 6 8 13 4 4 6 1 2 6 5 6 8 4 5 7 4 4 10 10 11 10 8 8 8 7 7 6 7 8 8 6 4 5 6 7 7 8 7 7 7 6 7 7 9 10 11 11 10 9 9 9 9 7 7 6 6 6 6 6 6 6 6 6 5 5 4 2 2 1
16 15 12 14 9 9 11 10 9 11 14 9 2 6 10 13 13 5 4 12 3 6 5 5 7 6 6 6 6 6 5 6 3 4 7 9 9 9 7 6 7 7 8 8 10 12 11 9 8 6 5 7 10 10 9 8 7 7 8 8 10 10 11 11 11 10 10 10 9 8 7 7 6 6 6 5 5 5 5 5 4 3 4 5 3 2
18 14 12 14 14 12 11 10 11 7 9 3 4 2 5 7 10 9 8 7 2 5 5 6 8 6 6 6 5 11 3 6 3 3 6 6 6 7 8 9 9 9 9 9 9 11 10 7 7 8 9 11 12 10 10 8 6 7 7 8 7 9 10 11 10 9 8 8 8 7 7 7 7 7 6 6 5 4 4 4 5 3 2 2 3 3
15 14 15 19 14 16 17 13 6 6 5 2 2 4 2 5 12 12 16 2 3 4 6 7 9 8 6 9 9 8 7 7 6 5 6 5 5 9 9 8 7 7 9 10 11 12 10 10 11 11 10 8 9 9 9 9 8 9 7 7 8 9 8 8 8 8 8 8 8 8 7 7 7 7 7 6 6 4 3 3 3 3 2 1 2 2
10 11 9 15 17 15 14 14 14 8 2 0 7 8 4 4 6 13 2 2 5 9 7 8 10 9 7 9 9 9 7 7 6 4 6 8 7 6 7 9 11 10 8 8 10 15 13 10 10 11 12 12 11 11 10 9 7 7 7 8 10 9 6 7 8 8 8 8 7 8 8 7 7 7 6 6 6 5 4 4 3 3 3 2 2 2
14 10 11 14 11 9 9 10 6 10 2 10 9 1 3 7 1 4 8 8 8 8 9 9 8 9 7 6 8 7 7 5 5 6 6 6 7 6 9 9 11 12 13 15 14 16 16 14 15 14 13 13 13 10 12 12 10 9 7 9 9 9 7 8 8 8 7 7 7 7 8 8 8 7 5 6 6 5 4 4 4 4 3 2 2 2
13 9 6 9 8 11 11 11 8 0 3 12 4 6 4 5 3 2 7 8 8 7 7 7 8 8 8 7 7 7 8 6 6 6 7 7 9 8 7 9 10 11 11 9 8 9 12 11 11 11 13 12 12 11 12 13 12 11 10 10 10 8 8 8 9 8 8 7 7 6 6 6 7 7 6 6 6 5 4 4 4 4 3 2 2 2
13 13 11 13 13 11 6 3 6 2 8 9 11 12 10 11 10 11 12 10 8 7 6 6 7 6 7 8 7 7 6 7 8 10 11 11 10 9 9 9 9 9 10 10 10 10 11 10 11 11 9 9 11 9 10 11 11 12 11 12 12 11 11 9 9 8 7 7 7 6 6 6 4 4 6 6 6 5 5 5 4 3 4 3 2 1
2 10 10 8 3 10 11 9 7 9 9 12 12 11 12 11 12 11 11 10 9 8 7 7 7 6 6 7 6 5 6 6 7 7 7 7 7 6 7 8 8 7 9 9 10 11 12 11 11 12 13 13 13 11 9 10 11 10 11 11 11 12 11 11 9 8 7 6 6 6 6 6 5 5 4 5 5 4 4 5 5 4 4 4 3 1
6 17 8 6 10 10 3 8 9 10 10 10 12 12 12 12 11 10 10 10 8 7 7 7 6 7 6 7 6 6 4 6 5 5 5 6 7 8 9 10 10 11 12 12 12 12 11 10 10 11 12 12 11 10 10 9 8 9 10 11 11 11 11 11 10 8 7 7 6 5 5 5 4 4 4 4 4 4 4 4 4 4 5 5 4 3
7 15 6 8 7 3 7 8 9 11 12 11 8 8 9 10 11 11 9 8 8 7 7 7 6 6 7 7 7 6 5 7 8 8 8 8 8 8 10 11 12 12 11 11 11 12 10 11 11 11 11 9 9 8 9 10 10 10 10 10 11 11 11 10 10 9 7 7 5 5 4 4 5 4 3 3 3 4 4 4 4 3 3 3 4 4
10 10 5 12 4 8 10 9 8 9 11 11 10 10 9 7 7 8 9 8 8 8 8 8 7 7 8 8 8 7 6 6 8 8 9 8 8 10 10 11 11 12 11 12 11 11 10 11 11 12 12 12 11 12 11 12 12 12 11 11 11 12 12 11 11 10 8 6 4 4 3 3 4 3 2 1 2 3 4 3 3 3 2 2 0 0
2 4 9 3 5 5 5 4 9 2 2 6 7 8 9 9 8 7 7 8 8 8 8 8 8 8 8 9 9 7 7 7 8 8 8 7 8 9 10 10 10 11 10 10 9 9 9 9 9 10 11 11 11 12 12 12 12 11 10 9 10 11 11 12 11 11 9 7 4 2 3 3 2 3 3 2 1 2 4 9 12 8 3 2 5 7
3 2 3 4 4 3 3 5 8 5 5 4 5 6 7 8 8 7 8 7 8 8 8 7 7 7 8 8 9 9 8 8 8 8 7 7 7 8 9 10 11 10 9 10 9 9 10 10 10 9 9 10 9 9 10 10 10 10 9 8 10 11 11 11 10 10 9 8 5 4 2 3 2 2 2 2 1 1 2 3 6 14 16 14 13 10
Wind_Direction
145 197 210 216 223 221 229 220 229 244 259 266 272 288 286 283 280 281 278 288 308 328 286 295 288 284 283 286 288 287 289 283 266 263 260 255 252 249 250 250 245 241 246 246 246 244 234 229 224 221 221 220 212 208 203 195 188 182 182 180 198 191 179 169 164 168 168 174 181 189 194 200 195 189 184 190 190 189 194 186 182 176 178 178 182 185
174 229 230 224 224 231 242 248 248 260 261 262 276 280 280 273 276 284 293 297 47 351 292 293 287 284 285 288 287 287 286 274 262 255 251 251 246 241 239 240 238 243 252 252 259 260 254 243 237 231 225 210 209 213 190 186 183 182 185 189 194 181 175 177 175 175 179 182 188 189 197 189 178 179 183 193 195 195 188 181 179 175 176 177 181 183
215 231 235 229 238 240 243 255 262 263 277 272 263 277 276 271 281 278 270 305 164 235 287 303 301 294 291 288 285 283 272 271 227 211 292 311 316 307 297 262 246 255 259 254 243 237 235 235 230 223 218 213 199 194 185 184 178 182 189 196 192 181 179 181 176 173 183 187 185 182 182 178 176 193 192 191 190 183 182 183 175 172 173 171 179 180
237 242 236 235 240 243 250 243 247 277 255 255 264 255 256 272 298 301 297 337 326 328 296 305 301 295 290 285 273 283 236 102 66 56 292 9 354 341 324 324 317 304 291 287 280 277 260 235 219 210 208 210 202 204 193 187 187 190 194 195 186 179 179 175 180 179 182 173 164 163 159 172 170 178 175 170 171 181 175 182 171 169 172 172 175 176
223 192 95 240 212 223 238 235 219 228 250 237 232 245 262 271 264 262 300 320 311 284 277 331 309 287 260 324 328 313 309 84 145 236 294 248 232 247 286 313 285 255 266 277 301 308 304 295 260 209 206 192 194 206 210 200 198 193 196 191 182 174 175 174 170 168 155 145 146 149 136 146 129 113 157 164 188 189 185 164 177 181 173 175 174 178
245 242 287 222 219 230 228 233 223 206 254 253 226 224 246 262 272 281 322 331 319 318 164 28 342 303 338 326 303 294 310 98 313 200 237 232 217 209 236 238 238 235 236 235 249 266 275 283 303 298 187 170 180 195 208 195 199 182 185 180 184 174 166 170 171 166 158 165 166 164 158 172 181 178 172 188 191 184 187 194 175 167 177 176 179 182
246 209 215 235 217 219 213 229 206 173 241 265 259 213 246 266 325 334 308 341 301 303 304 23 202 284 308 307 300 300 300 187 222 250 296 188 257 216 272 251 178 327 6 16 345 316 296 287 275 287 169 155 165 201 181 201 201 183 178 182 182 182 177 172 175 173 167 171 178 182 185 183 185 184 198 190 181 184 183 157 171 178 174 181 181 186
200 217 230 205 212 217 222 232 214 199 217 256 252 208 256 283 274 275 295 260 253 281 282 239 198 240 297 298 288 282 293 192 190 344 20 13 18 11 6 11 25 24 73 359 281 303 310 304 296 281 186 162 173 174 153 180 202 207 199 187 188 184 177 174 169 175 175 177 181 184 187 187 188 192 184 174 172 162 159 171 173 170 180 180 183 184
183 198 202 199 212 216 224 225 204 194 210 240 33 27 71 324 305 301 284 268 264 316 296 239 164 243 245 267 293 288 290 31 342 19 18 6 12 7 4 4 7 360 69 14 333 326 333 343 339 312 29 70 95 108 122 130 164 273 171 170 169 180 173 171 169 175 182 180 181 183 181 184 191 176 165 159 156 163 165 172 175 174 179 181 185 185
13 299 197 209 198 226 226 238 221 212 228 127 147 145 237 242 251 237 238 269 300 310 271 232 180 209 279 270 288 284 58 357 334 18 26 14 0 4 7 359 1 359 350 340 2 4 95 13 116 339 61 77 84 88 107 118 127 137 128 152 168 177 168 165 168 177 182 178 170 178 187 185 179 171 165 161 168 170 166 175 178 176 175 183 185 188
266 118 41 159 229 233 205 213 199 220 173 139 20 344 287 251 225 222 239 256 300 243 252 233 193 164 299 279 256 51 10 310 312 35 24 21 8 2 17 33 18 2 350 347 346 355 71 167 153 208 136 142 143 144 139 148 140 150 156 163 168 179 147 153 167 169 181 177 174 181 184 186 181 178 166 163 169 165 165 176 180 178 179 178 186 182
244 236 174 215 208 344 92 146 28 60 67 93 53 283 334 294 213 135 221 135 209 265 279 103 163 170 176 280 282 330 325 327 84 70 41 36 356 4 43 50 44 30 24 8 9 357 6 17 11 15 132 146 166 153 141 136 142 147 154 153 160 166 154 164 176 167 176 177 179 175 179 186 186 178 172 170 173 173 173 172 175 173 166 181 184 186
239 225 214 192 185 165 213 118 243 64 84 134 169 254 94 284 9 256 132 246 208 234 223 191 117 289 239 247 278 289 288 28 100 120 96 70 7 342 26 62 54 42 29 36 28 20 17 10 343 18 11 12 108 138 130 130 130 129 138 158 144 170 149 171 168 176 180 177 184 176 178 181 180 181 170 166 165 168 170 172 171 175 183 177 184 193
258 211 206 196 108 205 182 184 163 246 191 164 166 162 143 221 197 245 222 218 243 159 277 152 213 248 261 277 245 260 304 128 130 131 131 134 321 334 342 20 49 46 41 36 37 43 40 9 339 326 324 139 46 53 111 121 124 125 129 140 144 165 151 162 159 177 180 188 184 180 176 177 177 179 171 170 171 174 177 176 179 183 185 186 191 188
269 348 217 151 245 172 201 212 188 168 162 202 176 175 197 187 193 236 187 215 227 241 198 222 136 237 134 232 250 43 128 139 146 133 171 186 198 308 330 332 19 34 31 35 34 32 42 50 352 313 316 318 332 86 104 127 121 124 141 139 136 133 153 150 170 177 179 185 180 184 184 179 183 180 173 176 170 172 176 183 180 187 187 189 189 190
223 251 323 327 318 154 197 207 212 232 122 191 178 183 259 235 200 211 50 16 309 349 322 194 200 230 204 297 302 298 121 107 117 138 179 205 140 294 319 340 355 17 28 28 34 22 19 29 33 43 325 293 290 16 119 126 123 126 140 144 173 151 167 162 166 182 178 184 177 180 181 184 174 174 168 179 178 178 177 182 182 185 189 188 182 183
230 244 111 159 320 147 171 39 209 187 194 214 144 205 204 350 174 303 335 76 99 95 246 182 280 269 276 277 263 269 125 125 147 168 197 221 229 166 290 320 327 334 20 35 36 28 10 3 11 22 18 310 297 265 236 162 154 160 149 146 159 129 148 165 173 181 179 173 168 185 180 185 180 175 177 182 189 181 181 180 182 180 187 177 176 177
212 234 286 128 223 9 43 19 326 8 71 87 179 238 357 21 105 127 217 314 198 231 259 153 237 276 245 310 236 125 135 151 177 185 198 212 216 201 235 286 305 311 335 51 48 31 21 12 7 355 341 222 251 237 240 245 189 163 164 168 163 159 160 174 170 179 178 175 170 178 183 189 187 182 182 178 186 179 173 181 177 172 179 185 177 169
76 269 197 290 60 95 36 78 356 289 91 154 218 319 122 229 243 249 100 270 219 247 273 225 246 240 181 224 245 200 150 179 183 199 195 226 221 213 220 243 258 289 309 23 24 16 3 3 356 338 339 297 220 222 241 205 189 240 189 183 175 175 174 173 170 171 167 162 170 171 183 185 189 184 185 188 177 173 170 181 183 180 182 176 163 159
356 215 324 273 68 147 51 128 186 202 148 68 344 316 211 63 236 156 199 221 165 254 200 272 181 264 182 209 224 230 152 164 177 188 210 224 158 138 197 226 236 262 297 21 26 15 1 343 334 318 320 316 302 257 224 207 185 223 247 211 199 182 157 151 160 167 168 175 159 166 164 182 180 184 179 188 178 180 180 187 185 184 176 183 159 161
254 87 270 119 317 96 222 190 208 171 181 220 199 265 237 215 231 95 298 199 178 213 219 253 269 266 248 193 306 301 288 181 161 188 192 156 71 136 11 278 226 248 323 28 21 10 352 342 330 323 307 295 289 252 217 213 212 222 192 215 244 209 182 175 177 172 179 170 176 171 181 185 181 189 186 186 191 188 190 188 186 191 190 169 176 162
200 224 236 128 255 215 248 177 202 192 200 193 184 202 191 170 173 198 263 160 244 141 233 205 254 192 263 25 22 340 247 153 160 141 154 254 248 235 248 313 89 65 23 37 21 15 345 334 329 324 319 311 305 293 255 224 202 208 200 208 192 198 208 199 196 186 179 176 175 176 182 186 183 184 183 187 193 195 193 192 189 187 184 187 187 170
151 346 309 233 208 208 227 193 143 142 110 179 186 217 188 218 195 175 233 247 191 248 8 235 308 228 251 309 336 357 11 86 101 105 199 256 257 272 252 155 76 56 37 22 21 1 337 321 314 313 310 304 295 284 269 232 214 221 216 202 196 185 206 189 190 188 185 184 176 181 180 178 181 180 186 189 196 200 197 195 192 186 187 189 186 181
124 218 251 274 335 356 332 181 100 89 128 327 269 240 179 209 201 212 216 189 201 224 191 253 248 225 131 238 249 294 155 252 128 168 230 255 293 296 323 357 6 13 16 14 355 339 326 315 307 330 324 309 306 305 287 259 242 243 234 220 200 204 211 203 193 180 178 182 195 187 174 178 176 176 186 195 200 202 199 195 194 187 189 189 183 185
126 213 178 294 280 238 353 342 319 327 68 211 194 195 215 226 222 234 262 32 260 208 187 157 246 154 229 210 240 215 263 197 225 237 216 256 289 302 332 344 356 1 0 350 340 326 325 322 314 299 289 287 290 292 292 289 269 250 249 237 225 241 225 198 182 173 179 179 186 184 189 191 181 184 191 200 201 205 198 198 193 191 190 186 193 188
138 179 156 198 219 227 228 208 207 221 225 220 217 203 208 212 214 188 228 189 242 190 180 225 242 130 185 248 265 244 232 245 235 227 230 203 274 322 333 340 346 348 337 332 325 330 318 303 296 293 297 312 306 294 295 300 289 270 258 246 231 237 236 215 172 179 177 185 190 195 194 200 203 206 203 202 206 205 201 197 193 193 196 188 194 191
153 213 214 212 219 233 239 46 214 129 90 182 215 195 212 210 212 214 233 220 221 172 211 230 233 253 254 217 242 253 283 302 309 303 314 326 320 310 310 318 331 322 315 317 313 302 306 321 325 321 309 304 320 319 311 308 310 304 290 301 289 249 232 208 170 180 182 191 199 206 209 203 209 209 213 213 215 207 200 200 198 193 198 195 194 193
125 231 227 227 233 246 249 269 283 144 262 245 204 215 214 210 206 209 211 227 161 291 254 225 203 236 235 250 265 261 298 292 278 283 300 301 305 302 301 316 327 324 307 314 313 303 298 330 347 339 320 329 339 349 355 358 360 358 347 337 337 347 332 174 153 172 195 198 229 241 255 244 233 230 230 230 222 214 213 206 203 203 196 189 199 200
177 230 236 214 241 245 250 251 265 282 271 276 255 219 215 216 209 212 225 232 212 218 243 112 201 228 234 220 233 261 265 264 280 293 294 300 297 300 311 320 317 308 304 304 295 294 351 360 336 326 348 10 23 21 13 12 10 11 8 8 2 354 349 318 148 175 211 213 234 247 240 241 237 222 221 220 217 214 212 207 204 201 196 195 202 201
162 235 242 198 244 253 247 246 248 258 270 275 271 264 247 223 221 219 224 220 219 236 248 258 261 247 214 219 221 235 257 266 276 280 282 290 294 297 307 303 305 302 296 295 296 336 359 344 0 20 30 26 24 17 13 10 7 4 360 358 358 2 5 360 353 3 8 358 309 288 264 247 255 252 252 241 233 232 221 216 210 202 202 206 202 203
187 233 219 200 236 244 246 243 230 231 239 252 259 257 251 249 243 229 228 227 227 243 245 253 260 261 236 251 262 255 272 281 287 285 286 287 288 297 293 286 297 295 301 320 334 339 7 31 36 33 30 25 22 15 13 3 352 354 6 2 355 357 350 353 349 355 1 351 341 345 353 356 339 328 292 274 268 265 253 239 225 215 216 215 210 207
202 276 106 182 223 246 239 228 232 224 237 257 263 253 244 236 240 237 232 228 217 237 241 246 253 252 191 200 249 237 245 264 267 271 280 280 266 266 289 317 311 316 336 352 4 25 35 33 30 32 33 28 16 9 4 356 355 2 358 351 353 348 341 348 350 349 348 354 5 10 10 5 2 3 346 350 303 278 258 254 240 235 231 230 227 224
187 200 211 194 223 242 244 186 233 229 239 255 246 241 238 237 237 248 247 239 227 227 236 235 244 251 229 211 232 219 217 244 261 268 281 313 306 300 343 0 15 19 25 20 17 21 23 21 21 26 26 19 9 4 358 359 2 356 343 339 340 347 357 1 6 12 17 12 12 6 3 357 352 339 332 317 295 273 255 235 240 240 234 232 223 206
195 208 223 193 241 242 242 182 197 189 215 227 259 215 213 228 223 225 235 229 231 216 231 239 252 256 244 241 238 245 245 250 349 49 52 43 36 34 36 40 30 23 18 19 19 18 14 16 12 16 15 6 355 1 356 359 352 332 322 323 342 4 13 19 21 26 17 14 17 10 7 360 356 350 338 334 329 321 303 280 255 249 244 233 226 212
198 205 222 205 239 237 208 152 210 218 227 241 15 231 172 213 215 219 233 236 235 231 238 244 248 252 247 252 253 258 257 280 66 60 43 38 38 43 42 33 29 21 18 12 10 10 11 9 7 13 10 359 354 1 353 350 348 334 334 354 4 12 25 29 37 30 22 21 20 12 8 2 358 350 343 339 339 345 334 309 282 275 254 221 213 212
201 205 208 224 222 237 165 190 230 223 222 341 241 187 236 219 211 213 237 236 231 232 233 244 248 254 255 254 256 251 237 131 90 63 48 43 39 37 40 32 22 24 24 17 5 360 0 5 8 10 4 351 5 359 354 346 338 342 345 354 5 16 25 25 31 27 19 23 20 14 9 6 358 349 342 345 353 357 349 345 336 309 294 213 224 198
201 207 204 235 193 228 197 218 236 320 302 276 271 238 163 194 172 191 235 233 213 227 229 237 242 246 251 262 265 240 188 122 92 62 41 34 41 36 42 30 26 34 30 20 12 354 343 349 2 8 13 4 10 5 358 344 340 342 356 5 10 15 15 17 20 16 10 12 9 7 3 359 357 352 345 343 348 347 339 336 332 342 2 33 10 110
201 209 193 218 210 207 224 241 236 237 247 253 249 256 197 190 188 180 199 249 177 25 8 345 44 56 29 347 349 309 155 141 129 60 21 22 39 39 39 38 24 31 34 25 9 358 351 347 1 22 28 7 9 7 351 346 348 356 10 14 22 15 12 14 14 6 1 357 355 355 357 354 351 352 353 349 348 343 337 332 340 349 357 13 339 55
208 212 209 215 220 206 214 224 222 227 241 254 213 179 211 193 187 155 168 243 70 343 14 71 85 51 47 14 341 328 156 187 156 51 11 17 30 31 36 37 31 24 25 25 16 2 350 348 6 10 21 15 14 2 354 347 354 21 22 31 25 16 13 10 3 359 353 348 342 345 350 348 352 353 349 348 346 343 344 336 344 354 355 325 345 60
204 208 210 223 216 221 223 224 227 210 244 159 232 234 212 160 133 151 209 243 74 1 17 48 66 46 29 19 50 51 47 162 118 42 10 10 35 27 25 24 22 20 19 19 22 10 347 340 9 12 23 22 10 355 354 350 4 24 29 38 25 20 15 5 354 345 340 338 338 340 347 348 350 350 348 350 347 1 353 355 349 331 319 326 16 40
201 205 208 218 223 225 224 241 256 261 260 186 198 214 223 180 149 176 213 158 104 60 42 63 63 42 29 50 53 89 57 59 65 40 7 355 27 26 19 26 30 21 17 14 19 8 4 2 14 11 12 20 10 359 355 353 10 18 23 33 27 21 5 350 341 341 340 336 337 340 344 349 349 341 340 343 340 335 355 359 348 341 352 354 25 45
200 208 212 211 219 217 219 227 226 247 299 70 215 173 185 105 200 206 84 297 108 78 52 53 58 41 38 56 71 83 80 64 46 40 23 10 15 36 21 10 8 11 20 20 20 14 5 3 11 9 10 7 10 3 0 357 13 20 13 23 20 6 344 344 341 341 339 338 340 339 341 344 344 342 340 341 344 349 360 347 353 343 345 24 49 66
184 193 198 206 214 230 225 238 224 233 188 29 312 245 357 209 290 82 106 62 57 77 76 53 47 40 27 47 58 68 75 59 44 36 30 18 4 24 24 15 19 11 6 5 10 15 5 357 3 3 6 360 359 4 359 358 3 12 12 26 12 346 342 346 342 337 332 335 343 347 343 343 343 342 339 340 342 347 357 352 357 355 15 28 44 68
169 213 197 218 189 219 205 212 212 283 11 340 333 195 63 47 43 240 114 89 53 42 51 64 44 34 29 30 35 44 43 38 21 26 24 23 11 7 38 24 19 10 11 14 20 18 7 359 358 356 359 355 355 1 2 357 353 360 5 8 356 340 343 344 343 336 335 338 338 340 341 342 336 341 342 344 346 349 8 9 353 353 355 19 56 73
170 214 181 209 185 211 218 205 71 57 47 30 59 74 74 51 42 52 69 72 76 50 35 52 44 26 28 28 21 36 31 22 20 15 12 0 0 358 20 27 21 10 6 2 7 17 9 358 354 351 353 356 349 357 2 357 351 353 1 354 346 345 345 341 340 334 330 333 331 333 333 329 323 350 346 347 357 3 2 4 6 4 345 10 28 78
53 252 223 221 117 94 68 87 103 74 71 67 54 53 61 56 43 48 62 72 55 45 35 31 20 13 33 37 41 39 26 16 27 20 8 348 335 350 17 12 9 9 6 5 9 21 4 357 354 352 346 350 355 358 3 360 353 358 355 348 343 344 337 332 330 334 331 333 331 331 334 331 338 350 2 357 1 7 8 7 0 4 349 7 4 25
43 22 339 252 155 158 167 98 72 82 81 72 71 64 62 60 53 48 55 56 53 42 38 17 14 360 37 42 36 32 4 23 33 11 358 346 346 1 11 360 2 9 3 2 5 14 1 8 356 350 347 338 341 350 351 352 351 356 349 351 346 342 333 327 324 326 328 329 326 327 332 335 339 338 355 1 7 13 17 22 11 12 11 11 1 350
327 11 326 20 25 358 86 88 75 67 57 48 48 49 48 52 58 56 51 47 44 33 37 17 7 11 41 38 31 21 11 22 31 359 2 347 356 5 3 358 356 0 355 1 3 10 1 360 350 344 345 337 335 349 347 349 348 351 352 348 349 339 333 327 324 322 319 320 318 329 331 330 333 345 356 1 5 17 17 19 27 39 39 18 353 335
280 324 343 331 85 100 91 94 108 102 72 59 50 50 42 33 44 52 47 36 34 30 21 13 6 19 39 34 29 13 16 18 30 3 359 344 356 2 355 356 353 347 344 354 2 5 7 350 348 346 341 339 339 349 349 351 349 345 351 350 347 339 336 328 323 319 309 303 316 316 339 340 330 337 343 17 33 38 32 13 1 31 31 10 279 23
321 12 321 304 102 56 17 11 345 328 36 42 40 39 32 24 26 31 33 31 27 24 17 9 3 26 34 33 27 14 14 14 12 357 357 349 360 352 349 349 348 337 343 346 353 351 355 348 346 344 342 339 343 345 346 346 344 342 346 350 343 340 333 327 322 317 315 307 305 326 356 333 330 323 329 331 13 86 67 50 44 33 48 329 43 58
77 321 351 53 31 82 23 354 348 356 81 45 55 40 30 21 19 16 27 22 18 21 13 10 4 21 15 17 19 19 15 10 355 354 355 350 356 350 345 347 339 338 340 344 345 349 346 343 342 336 339 338 345 340 341 338 336 336 341 351 337 335 329 323 320 316 314 314 325 344 346 324 332 311 309 313 322 14 83 83 48 44 41 43 44 49